Flag for Brazil Weather past 2 weeks in Pirassununga, São Paulo, Brazil

Now
50 °F

Sunny.


Feels Like: 50 °F
Forecast: 49 / 85 °F
Wind: 2 mph from South

Location: Pirassununga Airport

Current Time: Aug 1, 2015 at 7:00:58 AM

Latest Report: Aug 1, 2015 at 6:00 AM


Visibility: 10 mi

Pressure: 30.18 "Hg (27.96 "Hg at 632m altitude)

Humidity: 94%

Dew point: 48 °F

Location of PirassunungaLocation

Historic Weather in Pirassununga — Graph

°F

Pirassununga temperature yesterday

Maximum temperature yesterday: 84 °F (at 2:00 PM)
Minimum temperature yesterday: 48 °F (at 7:00 AM)
Average temperature yesterday: 69 °F

Past Weeks' High & Low Weather Summary

 TemperatureHumidityPressure
High84 °F (Jul 20, 3:00 PM)100% (Jul 18, 7:00 AM)30.30 "Hg (Jul 18, 7:00 AM)
Low46 °F (Jul 28, 6:00 AM)25% (Jul 27, 4:00 PM)30.04 "Hg (Jul 21, 2:00 PM)
Average69 °F61%30.17 "Hg
* Reported Jul 16 11:00 PM — Jul 31 11:00 PM, Pirassununga, Weather by CustomWeather, © 2015

Note: Actual official high and low records may vary slightly from our data, if they occured in-between our weather recording intervals... More about our weather records

Advertising

Pirassununga weather history for previous 24 hours

 ConditionsComfort  
Time TempWeatherWind HumidityBarometerVisibility
11:00 PM
Fri, Jul 31
57 °FClear.2 mph77%30.21 "Hg10 mi
10:00 PM59 °FClear.1 mph77%30.21 "Hg10 mi
9:00 PM63 °FClear.3 mph73%30.21 "Hg10 mi
8:00 PM63 °FClear.2 mph68%30.18 "Hg10 mi
7:00 PM66 °FClear.3 mph64%30.15 "Hg10 mi
6:00 PM75 °FClear.1 mph44%30.12 "Hg10 mi
5:00 PM82 °FClear.5 mph30%30.12 "Hg10 mi
4:00 PM84 °FSunny.2 mph29%30.12 "Hg10 mi
3:00 PM84 °FSunny.6 mph27%30.12 "Hg10 mi
2:00 PM84 °FSunny.6 mph29%30.12 "Hg10 mi
1:00 PM82 °FSunny.7 mph28%30.18 "Hg10 mi
12:00 PM82 °FSunny.9 mph30%30.21 "Hg10 mi
11:00 AM79 °FSunny.7 mph39%30.24 "Hg10 mi
10:00 AM70 °FSunny.5 mph57%30.24 "Hg10 mi
9:00 AM64 °FSunny.3 mph68%30.24 "Hg10 mi
8:00 AM55 °FClear.3 mph88%30.21 "Hg5 mi
7:00 AM48 °FClear.2 mph94%30.18 "Hg4 mi
Weather by CustomWeather, © 2015

See weather overviewHow to use our weather pages